Location: Mount Carbon
(37.7520°N, 89.3212°W)
Time: 13:43:09
(UTC+00:00)

Daily predictions for brighter satellites

Satellite Brightness Start Highest point End
(mag) Time Altitude Azimuth Time Altitude Azimuth Time Altitude Azimuth
Cosmos 2369 Rocket 3.2 12:02:29 10° WSW 12:06:49 23° NW 12:11:10 10° N
Cosmos 1408 Rocket 3.6 12:03:36 10° SSW 12:07:48 54° W 12:12:02 10° N
FengYun 1-2 T 4.3 12:08:20 10° NNE 12:13:50 86° ESE 12:19:19 10° SSW
USA 215 3.3 12:08:16 10° SE 12:14:48 82° SW 12:21:22 10° NW
BREEZE-M DEB 3.3 12:12:02 10° WSW 12:14:59 68° NNW 12:23:35 10° NE
Cosmos 1743 Rocket 3.6 12:10:56 10° S 12:15:20 89° E 12:19:44 10° N
Cosmos 2279 Rocket 4.4 12:10:18 10° NNW 12:15:58 39° W 12:21:37 10° SSW
H-2A R/B 3.6 12:14:21 10° NNE 12:18:57 39° E 12:23:34 10° SSE
Cosmos 1602 4.4 12:16:03 10° S 12:19:47 58° E 12:23:32 10° NNE
Nadezhda 4 Rocket 4.0 12:15:42 10° SSW 12:21:45 61° W 12:27:54 10° N
AQUARIUS 4.3 12:20:03 10° NNE 12:24:33 85° E 12:29:02 10° SSW
DMSP B5D2-2 4.3 12:20:58 10° S 12:26:02 53° W 12:31:08 10° NNW
Cosmos 1515 Rocket 3.8 12:24:08 10° NNW 12:28:19 46° W 12:32:26 10° SSW
USA 32 4.2 12:26:14 10° N 12:31:30 86° E 12:36:44 10° S
Meteor 1-20 Rocket 4.3 12:26:07 10° S 12:31:39 89° W 12:37:19 10° N
SL-8 R/B 4.1 12:26:59 10° NW 12:31:42 56° NNE 12:36:24 10° ESE
BREEZE-M DEB (TANK) 4.4 12:21:00 10° NW 12:33:50 38° WSW 12:38:11 10° S
Cosmos 2221 3.5 22:59:49 10° SSW 23:03:56 49° W 23:08:07 10° N
CZ-4B R/B 4.3 23:01:09 10° ESE 23:05:00 20° ENE 23:08:50 10° NNE
Cosmos 1842 Rocket 4.3 23:00:46 10° SSW 23:05:08 58° W 23:09:33 10° N
Sich 1 4.1 23:02:23 10° NNE 23:05:53 24° ENE 23:09:24 10° SE
Cosmos 1805 Rocket 4.3 23:02:07 10° NNE 23:05:59 31° ENE 23:09:50 10° SE
NOSS 3-1 (A) 4.3 22:59:24 10° NNW 23:07:00 56° NE 23:15:41 10° SE
NOSS 3-1 (C) 4.3 22:59:48 10° NNW 23:07:38 85° ENE 23:16:38 10° SSE
GPS 2-04 Rocket1 3.1 23:04:00 10° WSW 23:08:05 65° S 23:12:10 10° E
Cosmos 44 3.2 23:06:13 10° NNW 23:10:54 82° WSW 23:15:18 10° SSE
Cosmos 468 Rocket 4.2 23:06:01 10° SSW 23:11:09 79° WNW 23:16:21 10° NNE
CZ-2C R/B 3.6 23:07:47 10° NE 23:11:59 25° E 23:16:08 10° SSE
CZ-2C R/B 3.2 23:07:32 10° S 23:12:31 77° WSW 23:17:20 10° NNW
Meteor 1-20 Rocket 4.4 23:07:49 10° N 23:13:37 61° E 23:19:22 10° SSE
Cosmos 1898 Rocket 3.6 23:13:03 10° N 23:18:12 54° ENE 23:23:16 10° SSE
Cosmos 2084 3.7 23:14:56 10° NNW 23:19:11 51° NE 23:23:35 10° SE
Nadezhda 4 Rocket 4.2 23:12:53 10° N 23:19:13 82° W 23:25:32 10° S
Cosmos 1666 4.3 23:18:11 10° NE 23:20:09 14° ENE 23:22:06 10° ESE
AQUARIUS 4.2 23:16:49 10° SSE 23:21:12 59° ENE 23:25:37 10° N
CZ-4C R/B 3.8 23:21:42 10° NNW 23:27:50 28° NE 23:34:44 10° E
Cosmos 1939 Rocket 3.1 23:25:33 10° S 23:29:40 80° WSW 23:33:46 10° NNW
Cosmos 1812 3.3 23:29:10 10° SSE 23:32:40 35° E 23:36:11 10° NNE
Cosmos 1092 Rocket 4.0 23:27:59 10° N 23:34:21 77° E 23:40:39 10° S
H-2A R/B 2.2 23:29:38 10° SE 23:34:38 48° ENE 23:39:30 10° N
Cosmos 1428 Rocket 4.4 23:32:21 10° N 23:38:29 71° E 23:44:38 10° SSE
USA 276 2.0 23:35:52 10° NW 23:38:57 60° NE 23:41:29 14° ESE
COSMO-SKYMED 1 3.0 23:35:13 10° NNE 23:39:21 41° E 23:43:26 10° S
BREEZE-M DEB (TANK) 4.1 23:38:33 10° NW 23:46:07 65° SW 23:49:01 10° SE
Cosmos 921 Rocket 4.2 23:43:46 10° SE 23:46:54 21° E 23:47:24 20° E
Cosmos 2142 Rocket 4.5 23:42:29 10° S 23:48:30 61° E 23:54:36 10° NNE
Cosmos 1633 Rocket 3.7 23:45:48 10° NNE 23:49:44 32° ENE 23:53:40 10° SE
Cosmos 841 Rocket 3.6 23:46:06 10° SSW 23:51:15 75° WNW 23:56:25 10° NNE
Cosmos 1697 Rocket 2.7 23:47:05 10° NNW 23:52:44 87° WSW 23:58:21 10° SSE
Cosmos 1602 4.1 23:49:22 10° NNW 23:53:11 66° W 23:57:01 10° S
Cosmos 1782 3.4 23:51:48 10° SSW 23:55:44 59° W 23:59:42 10° N
